Weather History for Fort Myers, FL

Change the Weather History Date:

Monday, April 1, 2013

  Actual Average Record
Temperature  
Mean Temperature 73 °F 72 °F  
Max Temperature 83 °F 82 °F 92 °F (1974)
Min Temperature 63 °F 61 °F 44 °F (2003)
Degree Days  
Heating Degree Days 0 0  
Month to date heating degree days 0 0  
Since 1 July heating degree days 201 284  
Cooling Degree Days 8 7  
Month to date cooling degree days 8 7  
Year to date cooling degree days 390 368  
Growing Degree Days 23 (Base 50)    
Moisture  
Dew Point 64 °F    
Average Humidity 80    
Maximum Humidity 97    
Minimum Humidity 51    
Precipitation  
Precipitation 0.00 in 0.09 in 2.13 in (1909)
Month to date precipitation 0.00 0.09  
Year to date precipitation 3.26 7.06  
Sea Level Pressure  
Sea Level Pressure 30.03 in    
Wind  
Wind Speed 7 mph (WSW)    
Max Wind Speed 18 mph    
Max Gust Speed 30 mph    
Visibility 9 miles    
Events      
T = Trace of Precipitation, MM = Missing Value Source: NWS Daily Summary

Daily Weather History Graph

Daily Weather History Graph

Search for Another Location

Airport:

Trip Planner

Search our weather history database for the weather conditions in past years. The results will help you decide how hot, cold, wet, or windy it might be!

Date:

Astronomy

Apr. 01, 2013 Rise Set
Actual Time 7:18 AM EDT 7:44 PM EDT
Civil Twilight 6:54 AM EDT 8:07 PM EDT
Nautical Twilight 6:27 AM EDT 8:35 PM EDT
Astronomical Twilight 6:00 AM EDT 9:02 PM EDT
Moon 12:27 AM EDT (4/1) 11:27 AM EDT (4/1)
Length of Visible Light 13h 13m
Length of Day
12h 26m
Waning Gibbous, 67% of the Moon is Illuminated
Apr 1
Waning Gibbous
Apr 3
Last Quarter
Apr 10
New
Apr 18
First Quarter
Apr 25
Full

Hourly Weather History & Observations

Time (EDT) Temp. Heat Index Dew Point Humidity Pressure Visibility Wind Dir Wind Speed Gust Speed Precip Events Conditions
12:53 AM 66.0 °F - 61.0 °F 84% 30.05 in 10.0 mi Calm Calm - N/A   Clear
1:53 AM 64.9 °F - 61.0 °F 87% 30.04 in 10.0 mi ESE 3.5 mph - N/A   Partly Cloudy
2:26 AM 64.4 °F - 60.8 °F 88% 30.02 in 10.0 mi Calm Calm - N/A   Mostly Cloudy
2:49 AM 64.4 °F - 60.8 °F 88% 30.02 in 10.0 mi Calm Calm - N/A   Mostly Cloudy
2:53 AM 64.0 °F - 61.0 °F 90% 30.02 in 10.0 mi Calm Calm - N/A   Mostly Cloudy
3:42 AM 64.4 °F - 60.8 °F 88% 30.01 in 10.0 mi Calm Calm - N/A   Mostly Cloudy
3:53 AM 64.0 °F - 61.0 °F 90% 30.01 in 10.0 mi Calm Calm - N/A   Mostly Cloudy
4:40 AM 64.4 °F - 62.6 °F 94% 29.99 in 10.0 mi SSE 4.6 mph - N/A   Partly Cloudy
4:53 AM 64.9 °F - 62.1 °F 90% 29.99 in 10.0 mi South 4.6 mph - N/A   Clear
5:53 AM 66.0 °F - 63.0 °F 90% 30.00 in 9.0 mi Calm Calm - N/A   Clear
6:37 AM 66.2 °F - 64.4 °F 94% 30.01 in 8.0 mi Calm Calm - N/A   Mostly Cloudy
6:48 AM 66.2 °F - 62.6 °F 88% 30.02 in 8.0 mi Calm Calm - N/A   Scattered Clouds
6:53 AM 66.0 °F - 64.0 °F 93% 30.03 in 9.0 mi Calm Calm - N/A   Scattered Clouds
7:01 AM 66.2 °F - 64.4 °F 94% 30.02 in 8.0 mi Calm Calm - N/A   Mostly Cloudy
7:10 AM 64.4 °F - 64.4 °F 100% 30.02 in 8.0 mi Calm Calm - N/A   Mostly Cloudy
7:53 AM 66.9 °F - 64.9 °F 93% 30.04 in 7.0 mi Calm Calm - N/A   Overcast
8:02 AM 68.0 °F - 64.4 °F 88% 30.03 in 7.0 mi Calm Calm - N/A   Overcast
8:53 AM 70.0 °F - 68.0 °F 93% 30.06 in 6.0 mi SW 6.9 mph - N/A   Overcast
9:22 AM 71.6 °F - 66.2 °F 83% 30.06 in 9.0 mi SW 5.8 mph - N/A   Mostly Cloudy
9:53 AM 73.9 °F - 66.9 °F 79% 30.07 in 10.0 mi SSW 5.8 mph - N/A   Scattered Clouds
10:53 AM 78.1 °F - 64.9 °F 64% 30.06 in 10.0 mi SW 8.1 mph - N/A   Clear
11:53 AM 81.0 °F 81.9 °F 62.1 °F 52% 30.06 in 10.0 mi West 9.2 mph - N/A   Clear
12:53 PM 82.0 °F 83.0 °F 62.1 °F 51% 30.06 in 10.0 mi WSW 12.7 mph - N/A   Partly Cloudy
1:53 PM 82.9 °F 83.7 °F 62.1 °F 49% 30.04 in 10.0 mi SW 12.7 mph - N/A   Partly Cloudy
2:53 PM 82.0 °F 83.4 °F 64.0 °F 54% 30.02 in 10.0 mi WSW 13.8 mph 23.0 mph N/A   Scattered Clouds
3:53 PM 82.0 °F 83.4 °F 64.0 °F 54% 30.00 in 10.0 mi WSW 13.8 mph 23.0 mph N/A   Clear
4:53 PM 82.0 °F 83.4 °F 64.0 °F 54% 29.99 in 10.0 mi WSW 15.0 mph 21.9 mph N/A   Scattered Clouds
5:53 PM 80.1 °F 81.2 °F 62.1 °F 54% 30.00 in 10.0 mi West 12.7 mph - N/A   Clear
6:53 PM 78.1 °F - 64.0 °F 62% 30.00 in 10.0 mi West 11.5 mph 19.6 mph N/A   Clear
7:53 PM 75.0 °F - 64.9 °F 71% 30.01 in 10.0 mi WNW 8.1 mph - N/A   Clear
8:53 PM 73.0 °F - 66.9 °F 81% 30.03 in 10.0 mi West 6.9 mph - N/A   Clear
9:53 PM 72.0 °F - 68.0 °F 87% 30.04 in 10.0 mi West 6.9 mph - N/A   Scattered Clouds
10:53 PM 71.1 °F - 68.0 °F 90% 30.06 in 10.0 mi West 4.6 mph - N/A   Clear
11:53 PM 71.1 °F - 68.0 °F 90% 30.05 in 9.0 mi West 4.6 mph - N/A   Clear